Hourly Data Report for March 09, 2003

TORONTO CITY
ONTARIO

43°40'00.000" N
79°24'00.000" W
112.50 m
6158355
71508
XTO

Download Data

Hourly Data (March 2003)
Hourly Data Report for March 9, 2003
TIME
LST
Temp Definition
°C
Dew Point Definition
°C
Rel Hum Definition
%
Precip. Amount Definition
mm

Wind Dir Definition
10's deg

Wind Spd Definition
km/h
Visibility Definition
km
Stn Press Definition
kPa
Hmdx Definition


Wind Chill Definition


Weather Definition


00:00 -4.2 -7.1 80   LegendMM LegendMM LegendMM 99.00     LegendNANA
01:00 -4.8 -8.3 76   LegendMM LegendMM LegendMM 99.18     LegendNANA
02:00 -5.4 -9.4 73   LegendMM LegendMM LegendMM 99.41     LegendNANA
03:00 -7.2 -11.3 72   LegendMM LegendMM LegendMM 99.53     LegendNANA
04:00 -8.8 -13.4 69   LegendMM LegendMM LegendMM 99.64     LegendNANA
05:00 -9.4 -14.3 67   LegendMM LegendMM LegendMM 99.83     LegendNANA
06:00 -10.7 -16.1 64   LegendMM LegendMM LegendMM 99.94     LegendNANA
07:00 -10.9 -15.6 68   LegendMM LegendMM LegendMM 100.04     LegendNANA
08:00 -11.6 -16.6 66   LegendMM LegendMM LegendMM 100.12     LegendNANA
09:00 -11.4 -17.1 63   LegendMM LegendMM LegendMM 100.25     LegendNANA
10:00 -10.9 -17.4 59   LegendMM LegendMM LegendMM 100.30     LegendNANA
11:00 -9.7 -18.0 51   LegendMM LegendMM LegendMM 100.33     LegendNANA
12:00 -9.4 -17.3 53   LegendMM LegendMM LegendMM 100.36     LegendNANA
13:00 -9.3 -18.4 48   LegendMM LegendMM LegendMM 100.32     LegendNANA
14:00 -9.0 -18.3 47   LegendMM LegendMM LegendMM 100.25     LegendNANA
15:00 -9.5 -18.8 47   LegendMM LegendMM LegendMM 100.23     LegendNANA
16:00 -9.7 -19.2 46   LegendMM LegendMM LegendMM 100.25     LegendNANA
17:00 -10.4 -19.9 46   LegendMM LegendMM LegendMM 100.25     LegendNANA
18:00 -10.8 -19.1 50   LegendMM LegendMM LegendMM 100.27     LegendNANA
19:00 -11.0 -18.4 54   LegendMM LegendMM LegendMM 100.28     LegendNANA
20:00 -11.0 -17.5 59   LegendMM LegendMM LegendMM 100.24     LegendNANA
21:00 -10.6 -17.4 57   LegendMM LegendMM LegendMM 100.17     LegendNANA
22:00 -10.4 -15.8 65   LegendMM LegendMM LegendMM 100.16     LegendNANA
23:00 -10.1 -15.3 66   LegendMM LegendMM LegendMM 100.13     LegendNANA

Notes on Data Quality.

Legend

  • E = Estimated
  • M = Missing
  • NA = Not Available*
  • [empty] = Indicates an unobserved value
Date modified: